Home   Weather   Unst   Past weeks
Flag for United Kingdom

Past Weather in Unst, Scotland, United Kingdom — Yesterday and Last 2 Weeks

Now
58 °F

Overcast.


Feels Like: 56 °F
Forecast: 57 / 51 °F
Wind: 8 mph from West

Location: Lerwick

Current Time: Jul 18, 2019 at 2:37:18 pm

Latest Report: Jul 18, 2019 at 2:00 pm


Visibility: 25 mi

Pressure: 29.55 "Hg

Humidity: 87%

Dew Point: 54 °F

Location of UnstLocation

Past Weather in Unst — Graph

°F

Unst Temperature Yesterday

Maximum temperature yesterday: 55 °F (at 6:00 pm)
Minimum temperature yesterday: 53 °F (at 5:00 am)
Average temperature yesterday: 54 °F

High & Low Weather Summary for the Past Weeks

 TemperatureHumidityPressure
High61 °F (Jul 15, 4:00 pm)100% (Jul 5, 7:00 am)30.24 "Hg (Jul 5, 7:00 am)
Low46 °F (Jul 7, 6:00 am)61% (Jul 6, 11:00 am)29.54 "Hg (Jul 18, 7:00 am)
Average52 °F90%29.98 "Hg
* Reported Jul 3 1:00 pm — Jul 18 1:00 pm, Unst. Weather by CustomWeather, © 2019

Note: Actual official high and low records may vary slightly from our data, if they occured in-between our weather recording intervals... More about our weather records

Advertising

Unst Weather History for the Previous 24 Hours

Scroll right to see more
 ConditionsComfort  
Time TempWeatherWind HumidityBarometerVisibility
1:00 pm
Thu, Jul 18
58 °FLow clouds.8 mph86%29.56 "Hg25 mi
12:00 pm59 °FLow clouds.10 mph85%29.55 "Hg16 mi
11:00 am57 °FLow clouds.8 mph88%29.55 "Hg31 mi
10:00 am56 °FLow clouds.9 mph95%29.54 "Hg31 mi
9:00 am54 °FLow clouds.9 mph99%29.54 "Hg16 mi
8:00 am53 °FRain. Low clouds.7 mph99%29.54 "Hg3 mi
7:00 am53 °FLow clouds.13 mph98%29.54 "Hg17 mi
6:00 am53 °FLow clouds.12 mph99%29.54 "Hg16 mi
5:00 am53 °FCool.9 mph100%29.54 "Hg2 mi
4:00 am54 °FRain. Dense fog.8 mph100%29.56 "Hg0 mi
3:00 am54 °FRain. Dense fog.12 mph100%29.58 "Hg0 mi
2:00 am54 °FDrizzle. Dense fog.13 mph100%29.59 "Hg0 mi
1:00 am54 °FDrizzle. Dense fog.10 mph99%29.61 "Hg0 mi
12:00 am54 °FFog.10 mph100%29.62 "Hg1 mi
11:00 pm
Wed, Jul 17
54 °FLow clouds.10 mph99%29.63 "Hg1 mi
10:00 pm54 °FDrizzle. Low clouds.10 mph100%29.64 "Hg1 mi
9:00 pm54 °FFog.10 mph100%29.65 "Hg0 mi
8:00 pm54 °FRain. Dense fog.8 mph99%29.66 "Hg0 mi
7:00 pm54 °FRain. Dense fog.10 mph99%29.68 "Hg0 mi
6:00 pm55 °FRain. Cloudy.10 mph100%29.69 "Hg2 mi
5:00 pm54 °FLight rain. Low clouds.6 mph100%29.71 "Hg2 mi
4:00 pm54 °FFog.8 mph100%29.72 "Hg0 mi
3:00 pm55 °FFog.10 mph100%29.74 "Hg0 mi
2:00 pm55 °FFog.9 mph100%29.76 "Hg0 mi
Weather by CustomWeather, © 2019

See weather overview